Location: Bay Shore Mobile Home Park
(38.5762°N, 75.0841°W)
Time: 02:41:23
(UTC+00:00)

ISS - Pass Details

Date: 24 January 2026
Orbit: 413 x 429 km, 51.6° (Epoch: 10 February)

Event Time Altitude Azimuth Distance (km) Brightness Sun altitude
Rises 23:08:30 0° 317° (NW) 2,365 0.4 -11.0°
Maximum altitude 23:13:09 13° 16° (NNE) 1,359 -1.5 -11.8°
Enters shadow 23:13:56 12° 31° (NNE) 1,400 -1.5 -12.0°
